�v������,���r���O(���x),�����t���O,���r���O(���x),�����t���O,��1(���x),�����t���O,�������x,�����t���O,�C�ۑ�(���x),�����t���O,�C�ۑ�(���x),�����t���O
8/1/2004 0:00,25.9,0,51.7,0,30.3,0,28,0,26.7,0,74.8,0
8/1/2004 0:15,25.8,0,53.9,0,30.2,0,28.1,0,26.7,0,75.3,0
8/1/2004 0:30,25.7,0,53.9,0,29.5,0,28.1,0,26.6,0,75.8,0
8/1/2004 0:45,25.6,0,54.1,0,28.8,0,28.1,0,26.6,0,76.3,0
8/1/2004 1:00,25.5,0,53.4,0,28.6,0,28.1,0,26.6,0,76.8,0
8/1/2004 1:15,25.5,0,54.2,0,28.8,0,28.2,0,26.6,0,76.8,0
8/1/2004 1:30,25.6,0,57.8,0,28.9,0,28.2,0,26.5,0,76.8,0
8/1/2004 1:45,26.1,0,63.9,0,28.9,0,28,0,26.5,0,76.8,0
8/1/2004 2:00,26.5,0,68.1,0,29,0,28,0,26.5,0,76.8,0
8/1/2004 2:15,26.8,0,69.1,0,29,0,28,0,26.5,0,77.1,0
8/1/2004 2:30,27.1,0,70.8,0,29.2,0,28,0,26.4,0,77.3,0
8/1/2004 2:45,27.4,0,71.2,0,29.3,0,28,0,26.4,0,77.6,0
8/1/2004 3:00,27.6,0,72.2,0,29.4,0,28,0,26.4,0,77.8,0
8/1/2004 3:15,27.7,0,72.9,0,29.3,0,28,0,26.4,0,77.8,0
8/1/2004 3:30,27.8,0,73.9,0,29.3,0,28.1,0,26.4,0,77.8,0
8/1/2004 3:45,28,0,73.9,0,29.2,0,28.1,0,26.4,0,77.8,0
8/1/2004 4:00,28,0,73.2,0,29.3,0,28.1,0,26.4,0,77.8,0
8/1/2004 4:15,28.1,0,73,0,29.2,0,28.1,0,26.4,0,78.1,0
8/1/2004 4:30,28.2,0,72.6,0,29.2,0,28.1,0,26.3,0,78.3,0
8/1/2004 4:45,28.2,0,72,0,29.1,0,28.2,0,26.3,0,78.6,0
8/1/2004 5:00,28.3,0,71.9,0,29.1,0,28.2,0,26.3,0,78.8,0
8/1/2004 5:15,28.3,0,72,0,29,0,28.2,0,26.4,0,78.6,0
8/1/2004 5:30,28.3,0,71.9,0,28.9,0,28.2,0,26.5,0,78.3,0
8/1/2004 5:45,28.4,0,71.7,0,28.9,0,28.3,0,26.6,0,78.1,0
8/1/2004 6:00,28.4,0,71.6,0,29,0,28.3,0,26.7,0,77.8,0
8/1/2004 6:15,28.5,0,71.3,0,28.9,0,28.3,0,26.8,0,76.8,0
8/1/2004 6:30,28.5,0,71.1,0,28.8,0,28.3,0,26.9,0,75.8,0
8/1/2004 6:45,28.6,0,70.5,0,28.7,0,28.3,0,27.1,0,74.8,0
8/1/2004 7:00,28.6,0,70.3,0,28.7,0,28.3,0,27.2,0,73.8,0
8/1/2004 7:15,28.6,0,70.3,0,28.8,0,27.9,0,27.3,0,72.8,0
8/1/2004 7:30,28.7,0,70.3,0,28.9,0,27.9,0,27.3,0,71.8,0
8/1/2004 7:45,28.7,0,70.3,0,29,0,27.9,0,27.4,0,70.8,0
8/1/2004 8:00,28.8,0,69.8,0,29.1,0,27.9,0,27.5,0,69.8,0
8/1/2004 8:15,28.9,0,69.7,0,29.3,0,28,0,27.9,0,68.6,0
8/1/2004 8:30,29,0,68.7,0,29.3,0,28,0,28.4,0,67.3,0
8/1/2004 8:45,29.1,0,68.1,0,29.5,0,28,0,28.8,0,66.1,0
8/1/2004 9:00,29.2,0,66.9,0,29.6,0,27.7,0,29.3,0,64.8,0
8/1/2004 9:15,29.4,0,66.3,0,29.8,0,27.9,0,29.3,0,63.8,0
8/1/2004 9:30,29.5,0,66.2,0,29.9,0,28,0,29.4,0,62.8,0
8/1/2004 9:45,29.6,0,65.4,0,30.2,0,27.8,0,29.4,0,61.8,0
8/1/2004 10:00,29.8,0,63.8,0,30.4,0,27.9,0,29.5,0,60.8,0
8/1/2004 10:15,30,0,63,0,30.6,0,27.9,0,29.7,0,59.5,0
8/1/2004 10:30,30.3,0,61.8,0,30.8,0,27.9,0,30,0,58.3,0
8/1/2004 10:45,30.5,0,60.2,0,31,0,28,0,30.2,0,57,0
8/1/2004 11:00,30.6,0,58,0,31.2,0,27.8,0,30.5,0,55.8,0
8/1/2004 11:15,30.8,0,57.8,0,31.3,0,27.8,0,30.7,0,54.5,0
8/1/2004 11:30,31,0,55.8,0,31.5,0,27.8,0,30.8,0,53.3,0
8/1/2004 11:45,31.1,0,55.1,0,31.7,0,27.9,0,31,0,52,0
8/1/2004 12:00,31.4,0,54.5,0,31.9,0,27.9,0,31.2,0,50.8,0
8/1/2004 12:15,31.6,0,52.3,0,32.1,0,27.9,0,31.2,0,50.3,0
8/1/2004 12:30,31.8,0,47.7,0,32.2,0,27.9,0,31.2,0,49.8,0
8/1/2004 12:45,32,0,48.3,0,32.4,0,28,0,31.2,0,49.3,0
8/1/2004 13:00,32.2,0,46.5,0,32.5,0,28,0,31.2,0,48.8,0
8/1/2004 13:15,32.3,0,47.8,0,32.7,0,27.9,0,31.2,0,48,0
8/1/2004 13:30,32.4,0,46.9,0,32.8,0,27.9,0,31.3,0,47.3,0
8/1/2004 13:45,32.5,0,46.9,0,32.6,0,27.9,0,31.3,0,46.5,0
8/1/2004 14:00,32.7,0,46.1,0,32.8,0,28,0,31.4,0,45.8,0
8/1/2004 14:15,32.8,0,44.6,0,32.9,0,28,0,31.1,0,46,0
8/1/2004 14:30,32.8,0,44,0,33,0,28,0,30.8,0,46.3,0
8/1/2004 14:45,32.8,0,43.4,0,33,0,28,0,30.6,0,46.5,0
8/1/2004 15:00,32.9,0,44.7,0,33.1,0,28.1,0,30.3,0,46.8,0
8/1/2004 15:15,32.9,0,44.1,0,33.2,0,28,0,30.2,0,47.3,0
8/1/2004 15:30,32.9,0,42.6,0,33.1,0,28,0,30.1,0,47.8,0
8/1/2004 15:45,32.8,0,44.2,0,33,0,28,0,30,0,48.3,0
8/1/2004 16:00,32.8,0,45.2,0,33,0,28,0,29.9,0,48.8,0
8/1/2004 16:15,33,0,47.3,0,33.4,0,28.1,0,29.8,0,49.3,0
8/1/2004 16:30,33.1,0,47.5,0,33.8,0,28.1,0,29.7,0,49.8,0
8/1/2004 16:45,33.2,0,47.2,0,34.1,0,28.1,0,29.6,0,50.3,0
8/1/2004 17:00,33.3,0,47.6,0,34.3,0,28.1,0,29.5,0,50.8,0
8/1/2004 17:15,33.4,0,47.5,0,34.5,0,28.2,0,29.3,0,52.8,0
8/1/2004 17:30,33.4,0,46.7,0,34.6,0,28.2,0,29,0,54.8,0
8/1/2004 17:45,33.4,0,46.5,0,34.7,0,28.2,0,28.8,0,56.8,0
8/1/2004 18:00,33.3,0,46.5,0,34.7,0,27.9,0,28.6,0,58.8,0
8/1/2004 18:15,33.2,0,47.2,0,34.6,0,27.9,0,28.4,0,61.1,0
8/1/2004 18:30,32.6,0,41.8,0,34.5,0,27.9,0,28.2,0,63.3,0
8/1/2004 18:45,31.8,0,39.5,0,34.4,0,28,0,28,0,65.6,0
8/1/2004 19:00,31.1,0,39.9,0,34.4,0,27.9,0,27.8,0,67.8,0
8/1/2004 19:15,30.5,0,43.8,0,34.5,0,27.8,0,27.7,0,67.6,0
8/1/2004 19:30,30.1,0,49.7,0,34.5,0,27.9,0,27.6,0,67.3,0
8/1/2004 19:45,29.9,0,49.2,0,34.4,0,27.9,0,27.5,0,67.1,0
8/1/2004 20:00,29.6,0,47,0,34.4,0,27.9,0,27.4,0,66.8,0
8/1/2004 20:15,29.3,0,46,0,34.3,0,28,0,27.3,0,67.6,0
8/1/2004 20:30,29,0,45,0,34.3,0,28,0,27.2,0,68.3,0
8/1/2004 20:45,28.7,0,44.4,0,34.1,0,28,0,27.1,0,69.1,0
8/1/2004 21:00,28.4,0,46.5,0,33.2,0,28.1,0,27,0,69.8,0
8/1/2004 21:15,28.2,0,48.7,0,32.2,0,28.1,0,26.9,0,69.8,0
8/1/2004 21:30,28,0,48.1,0,31.5,0,28.1,0,26.8,0,69.8,0
8/1/2004 21:45,28,0,52,0,31,0,28,0,26.7,0,69.8,0
8/1/2004 22:00,28.4,0,56.7,0,30.1,0,28,0,26.6,0,69.8,0
8/1/2004 22:15,28.8,0,59.2,0,29.1,0,28.1,0,26.6,0,70.3,0
8/1/2004 22:30,29.2,0,60.5,0,28.6,0,28.1,0,26.6,0,70.8,0
8/1/2004 22:45,29.4,0,61.8,0,28.3,0,28.1,0,26.6,0,71.3,0
8/1/2004 23:00,29.7,0,62,0,28.2,0,28.1,0,26.6,0,71.8,0
8/1/2004 23:15,29.8,0,62,0,28.2,0,28,0,26.6,0,72.1,0
8/1/2004 23:30,29.8,0,59.9,0,28.2,0,28.1,0,26.6,0,72.3,0
8/1/2004 23:45,29.6,0,55.9,0,28.2,0,28.1,0,26.6,0,72.6,0
8/2/2004 0:00,29.3,0,55.7,0,29.1,0,28.1,0,26.6,0,72.8,0
8/2/2004 0:15,29,0,52.4,0,29.6,0,28.1,0,26.5,0,73.1,0
8/2/2004 0:30,28.8,0,54.3,0,29.8,0,28.2,0,26.5,0,73.3,0
8/2/2004 0:45,28.7,0,53,0,30,0,28.2,0,26.4,0,73.6,0
8/2/2004 1:00,28.5,0,51.9,0,30.2,0,28.2,0,26.4,0,73.8,0
8/2/2004 1:15,28.3,0,52.1,0,30.1,0,28.3,0,26.3,0,73.6,0
8/2/2004 1:30,28.4,0,55.6,0,29.8,0,28.3,0,26.2,0,73.3,0
8/2/2004 1:45,28.5,0,53.8,0,29.8,0,28.2,0,26.2,0,73.1,0
8/2/2004 2:00,28,0,47.3,0,29.7,0,28.2,0,26.1,0,72.8,0
8/2/2004 2:15,28,0,48,0,29.6,0,28.2,0,26.1,0,73.1,0
8/2/2004 2:30,28.4,0,52.9,0,29.5,0,28.3,0,26.1,0,73.3,0
8/2/2004 2:45,28.6,0,56.2,0,29.5,0,28.3,0,26.1,0,73.6,0
8/2/2004 3:00,28.8,0,58.1,0,29.5,0,28.3,0,26.1,0,73.8,0
8/2/2004 3:15,29,0,59.4,0,29.4,0,28.3,0,26,0,74.1,0
8/2/2004 3:30,29.2,0,60.3,0,29.4,0,28.3,0,25.9,0,74.3,0
8/2/2004 3:45,29.4,0,61.1,0,29.4,0,28.4,0,25.8,0,74.6,0
8/2/2004 4:00,29.3,0,57.8,0,29.4,0,28.2,0,25.7,0,74.8,0
8/2/2004 4:15,28.7,0,48.1,0,29.4,0,28.3,0,25.7,0,74.3,0
8/2/2004 4:30,28.8,0,50.6,0,29.3,0,28.3,0,25.7,0,73.8,0
8/2/2004 4:45,29,0,53.8,0,29.3,0,28.3,0,25.8,0,73.3,0
8/2/2004 5:00,29.2,0,56,0,29.2,0,28.3,0,25.8,0,72.8,0
8/2/2004 5:15,29.4,0,57.7,0,29.2,0,28.3,0,25.9,0,72.6,0
8/2/2004 5:30,28.7,0,48.8,0,29.2,0,28.1,0,26,0,72.3,0
8/2/2004 5:45,28.5,0,48.2,0,29.1,0,28.2,0,26.1,0,72.1,0
8/2/2004 6:00,28.8,0,51.8,0,29.1,0,28.2,0,26.2,0,71.8,0
8/2/2004 6:15,29,0,54.2,0,29.1,0,28.2,0,26.5,0,70.3,0
8/2/2004 6:30,28.7,0,50,0,29.2,0,28.2,0,26.8,0,68.8,0
8/2/2004 6:45,28.3,0,48,0,29.3,0,28.2,0,27.1,0,67.3,0
8/2/2004 7:00,28.1,0,49.9,0,29.5,0,28.3,0,27.4,0,65.8,0
8/2/2004 7:15,28,0,52.3,0,29.7,0,28.3,0,27.7,0,63.8,0
8/2/2004 7:30,27.9,0,54.3,0,29.6,0,28.3,0,28,0,61.8,0
8/2/2004 7:45,27.7,0,53.9,0,29.5,0,28.3,0,28.4,0,59.8,0
8/2/2004 8:00,27.6,0,53.6,0,29.3,0,28.3,0,28.7,0,57.8,0
8/2/2004 8:15,28,0,63,0,29.3,0,28.1,0,28.9,0,57,0
8/2/2004 8:30,28.3,0,63.6,0,29.4,0,28.1,0,29.1,0,56.3,0
8/2/2004 8:45,28.6,0,63.1,0,29.5,0,28.1,0,29.4,0,55.5,0
8/2/2004 9:00,28.8,0,62.1,0,29.6,0,28.1,0,29.6,0,54.8,0
8/2/2004 9:15,29,0,61.8,0,29.7,0,28.2,0,29.7,0,53.3,0
8/2/2004 9:30,29.2,0,62.2,0,29.9,0,28.2,0,29.8,0,51.8,0
8/2/2004 9:45,29.4,0,61.9,0,30,0,28.2,0,30,0,50.3,0
8/2/2004 10:00,29.5,0,59.7,0,30.2,0,28.2,0,30.1,0,48.8,0
8/2/2004 10:15,29.6,0,55.4,0,30.4,0,28.2,0,30.2,0,48.5,0
8/2/2004 10:30,29.8,0,54.8,0,30.6,0,28.3,0,30.4,0,48.3,0
8/2/2004 10:45,29.9,0,52.9,0,30.8,0,28.3,0,30.5,0,48,0
8/2/2004 11:00,30.1,0,51.9,0,30.9,0,28.3,0,30.7,0,47.8,0
8/2/2004 11:15,30.3,0,51.6,0,31.1,0,28.3,0,30.7,0,47.3,0
8/2/2004 11:30,30.5,0,49.8,0,31.3,0,28.3,0,30.8,0,46.8,0
8/2/2004 11:45,30.6,0,50.4,0,31.5,0,28.3,0,30.8,0,46.3,0
8/2/2004 12:00,30.9,0,50.8,0,31.7,0,28.4,0,30.9,0,45.8,0
8/2/2004 12:15,31.1,0,50.6,0,32,0,28.4,0,31,0,46.5,0
8/2/2004 12:30,31.3,0,50.3,0,32.2,0,28.4,0,31,0,47.3,0
8/2/2004 12:45,31.5,0,50.7,0,32.2,0,28.1,0,31.1,0,48,0
8/2/2004 13:00,31.7,0,49.6,0,32.4,0,28.1,0,31.2,0,48.8,0
8/2/2004 13:15,31.9,0,48.7,0,32.5,0,28.2,0,31.2,0,48.8,0
8/2/2004 13:30,32,0,48.8,0,32.7,0,28.2,0,31.1,0,48.8,0
8/2/2004 13:45,32.2,0,47.3,0,32.7,0,28.2,0,31.1,0,48.8,0
8/2/2004 14:00,32.4,0,47.7,0,32.8,0,28.2,0,31.1,0,48.8,0
8/2/2004 14:15,32.5,0,47.6,0,32.8,0,28.3,0,31,0,48.5,0
8/2/2004 14:30,32.7,0,47.8,0,32.9,0,28.3,0,30.9,0,48.3,0
8/2/2004 14:45,32.7,0,47.6,0,33,0,28.3,0,30.8,0,48,0
8/2/2004 15:00,32.8,0,47.2,0,33,0,28.3,0,30.7,0,47.8,0
8/2/2004 15:15,32.8,0,46.2,0,32.9,0,28.3,0,30.6,0,47.3,0
8/2/2004 15:30,32.8,0,44.9,0,33,0,28.4,0,30.5,0,46.8,0
8/2/2004 15:45,32.8,0,45.3,0,32.9,0,28.4,0,30.4,0,46.3,0
8/2/2004 16:00,32.8,0,46.1,0,32.9,0,28.4,0,30.3,0,45.8,0
8/2/2004 16:15,32.8,0,44.6,0,32.8,0,28.4,0,30.1,0,47.5,0
8/2/2004 16:30,32.8,0,45.2,0,32.8,0,28.5,0,29.9,0,49.3,0
8/2/2004 16:45,32.8,0,43.8,0,32.7,0,28.5,0,29.7,0,51,0
8/2/2004 17:00,32.7,0,45.1,0,32.6,0,28.5,0,29.5,0,52.8,0
8/2/2004 17:15,32.6,0,45.1,0,32.4,0,28.5,0,29.3,0,53.8,0
8/2/2004 17:30,32.6,0,46.2,0,32.2,0,28.1,0,29.1,0,54.8,0
8/2/2004 17:45,32.7,0,48.6,0,32,0,28.1,0,28.9,0,55.8,0
8/2/2004 18:00,32.6,0,47.4,0,31.8,0,28.1,0,28.7,0,56.8,0
8/2/2004 18:15,31.6,0,40,0,31.6,0,28.2,0,28.5,0,57.3,0
8/2/2004 18:30,31,0,40,0,31.3,0,28.2,0,28.4,0,57.8,0
8/2/2004 18:45,30.7,0,46,0,31.2,0,28,0,28.2,0,58.3,0
8/2/2004 19:00,30.2,0,47.7,0,31,0,28,0,28.1,0,58.8,0
8/2/2004 19:15,29.9,0,48.8,0,30.8,0,28,0,27.9,0,60,0
8/2/2004 19:30,29.6,0,48.1,0,30.6,0,28,0,27.8,0,61.3,0
8/2/2004 19:45,29.4,0,50.5,0,30.4,0,28,0,27.6,0,62.5,0
8/2/2004 20:00,29.1,0,51.2,0,30.2,0,28,0,27.5,0,63.8,0
8/2/2004 20:15,28.8,0,49.9,0,30.3,0,28.1,0,27.4,0,64.3,0
8/2/2004 20:30,28.5,0,52.8,0,30.3,0,28.1,0,27.3,0,64.8,0
8/2/2004 20:45,28.2,0,48.9,0,30.2,0,28.1,0,27.3,0,65.3,0
8/2/2004 21:00,27.8,0,47.5,0,30.2,0,28.2,0,27.2,0,65.8,0
8/2/2004 21:15,27.7,0,46.5,0,30.2,0,28.2,0,27.1,0,66.3,0
8/2/2004 21:30,27.8,0,49.6,0,30.2,0,28.2,0,27,0,66.8,0
8/2/2004 21:45,28.4,0,52.4,0,29.9,0,28.2,0,26.9,0,67.3,0
8/2/2004 22:00,28.7,0,53.9,0,30.3,0,28.3,0,26.8,0,67.8,0
8/2/2004 22:15,29,0,54.7,0,30.4,0,28.3,0,26.7,0,67.8,0
8/2/2004 22:30,29.2,0,55.3,0,30.4,0,28.3,0,26.7,0,67.8,0
8/2/2004 22:45,29.5,0,55.6,0,30.4,0,28.4,0,26.6,0,67.8,0
8/2/2004 23:00,29.6,0,55.9,0,30.4,0,28.4,0,26.6,0,67.8,0
8/2/2004 23:15,29.8,0,56.1,0,30.4,0,28.4,0,26.6,0,67.8,0
8/2/2004 23:30,29.9,0,56.4,0,30.4,0,28.4,0,26.6,0,67.8,0
8/2/2004 23:45,29,0,48.3,0,30.4,0,28.5,0,26.7,0,67.8,0
8/3/2004 0:00,28.5,0,47.1,0,30.3,0,28.1,0,26.7,0,67.8,0
8/3/2004 0:15,28.4,0,50.8,0,30.2,0,28.1,0,26.6,0,67.6,0
8/3/2004 0:30,28.2,0,50.7,0,30.1,0,28.1,0,26.6,0,67.3,0
8/3/2004 0:45,27.9,0,50.7,0,30,0,28.1,0,26.5,0,67.1,0
8/3/2004 1:00,28,0,53.9,0,30,0,28.1,0,26.5,0,66.8,0
8/3/2004 1:15,27.8,0,52.3,0,30,0,28.2,0,26.5,0,66.3,0
8/3/2004 1:30,27.8,0,55.3,0,30,0,28.2,0,26.4,0,65.8,0
8/3/2004 1:45,27.6,0,53,0,29.8,0,28.2,0,26.4,0,65.3,0
8/3/2004 2:00,27.7,0,55.8,0,29.7,0,28.2,0,26.4,0,64.8,0
8/3/2004 2:15,27.6,0,54.4,0,29.6,0,28.3,0,26.4,0,65.3,0
8/3/2004 2:30,27.6,0,55.1,0,29,0,28.3,0,26.3,0,65.8,0
8/3/2004 2:45,27.6,0,57.1,0,28.8,0,28.3,0,26.3,0,66.3,0
8/3/2004 3:00,27.5,0,55,0,28.7,0,28.3,0,26.3,0,66.8,0
8/3/2004 3:15,27.6,0,57.4,0,28.7,0,28.3,0,26.3,0,67.3,0
8/3/2004 3:30,27.5,0,56.8,0,28.6,0,28.4,0,26.2,0,67.8,0
8/3/2004 3:45,27.5,0,55.5,0,28.6,0,28.4,0,26.2,0,68.3,0
8/3/2004 4:00,27.6,0,58.5,0,28.6,0,28.4,0,26.2,0,68.8,0
8/3/2004 4:15,27.5,0,57.3,0,28.5,0,28.4,0,26.3,0,68.6,0
8/3/2004 4:30,27.5,0,56.4,0,28.5,0,28.5,0,26.3,0,68.3,0
8/3/2004 4:45,27.6,0,58.9,0,28.5,0,28,0,26.4,0,68.1,0
8/3/2004 5:00,27.5,0,57.8,0,28.5,0,28,0,26.5,0,67.8,0
8/3/2004 5:15,27.4,0,56.2,0,28.4,0,28,0,26.5,0,67.8,0
8/3/2004 5:30,27.5,0,58.8,0,28.4,0,28,0,26.5,0,67.8,0
8/3/2004 5:45,27.5,0,58,0,28.5,0,28,0,26.6,0,67.8,0
8/3/2004 6:00,27.4,0,56,0,28.4,0,28.1,0,26.6,0,67.8,0
8/3/2004 6:15,27.6,0,60.1,0,28.4,0,28.1,0,26.8,0,67.3,0
8/3/2004 6:30,27.4,0,57.2,0,28.6,0,28.1,0,27,0,66.8,0
8/3/2004 6:45,27.6,0,58.3,0,28.7,0,28.1,0,27.3,0,66.3,0
8/3/2004 7:00,27.4,0,56.4,0,28.9,0,28.1,0,27.5,0,65.8,0
8/3/2004 7:15,27.7,0,59,0,29.2,0,28.1,0,27.6,0,65.8,0
8/3/2004 7:30,27.6,0,55.4,0,29.4,0,28.2,0,27.6,0,65.8,0
8/3/2004 7:45,27.6,0,54,0,29.6,0,28.2,0,27.7,0,65.8,0
8/3/2004 8:00,27.7,0,57.8,0,29.7,0,28.1,0,27.8,0,65.8,0
8/3/2004 8:15,27.9,0,57.1,0,29.8,0,28.1,0,27.8,0,66.1,0
8/3/2004 8:30,28.2,0,61.9,0,29.9,0,28.1,0,27.8,0,66.3,0
8/3/2004 8:45,28.5,0,63.1,0,30,0,28.1,0,27.8,0,66.6,0
8/3/2004 9:00,28.7,0,62.6,0,30.1,0,28.1,0,27.8,0,66.8,0
8/3/2004 9:15,28.9,0,62,0,30.2,0,28.1,0,28,0,67.3,0
8/3/2004 9:30,29.1,0,61.5,0,30.4,0,28.1,0,28.1,0,67.8,0
8/3/2004 9:45,29.3,0,61.1,0,30.5,0,28.2,0,28.3,0,68.3,0
8/3/2004 10:00,29.5,0,60.7,0,30.6,0,28.2,0,28.5,0,68.8,0
8/3/2004 10:15,29.7,0,60.4,0,30.8,0,28.2,0,28.6,0,67.1,0
8/3/2004 10:30,29.8,0,60.2,0,31,0,28.2,0,28.7,0,65.3,0
8/3/2004 10:45,29.9,0,59.8,0,31.2,0,28.2,0,28.9,0,63.6,0
8/3/2004 11:00,30.1,0,59.6,0,31.5,0,28.3,0,29,0,61.8,0
8/3/2004 11:15,30.3,0,59.3,0,31.7,0,28.3,0,29.4,0,59.5,0
8/3/2004 11:30,30.5,0,59,0,31.8,0,28.3,0,29.7,0,57.3,0
8/3/2004 11:45,30.7,0,58.7,0,32,0,28.3,0,30.1,0,55,0
8/3/2004 12:00,30.8,0,58.4,0,32.3,0,28.3,0,30.5,0,52.8,0
8/3/2004 12:15,31,0,58.1,0,32.5,0,28.4,0,30.7,0,52,0
8/3/2004 12:30,31.2,0,57.7,0,32.7,0,28.4,0,30.9,0,51.3,0
8/3/2004 12:45,31.4,0,57.4,0,32.9,0,28.4,0,31.1,0,50.5,0
8/3/2004 13:00,31.6,0,57.1,0,33.1,0,28.4,0,31.3,0,49.8,0
8/3/2004 13:15,31.8,0,56.7,0,33.3,0,28.5,0,31.5,0,49.5,0
8/3/2004 13:30,31.9,0,56.4,0,33.5,0,28.5,0,31.7,0,49.3,0
8/3/2004 13:45,32.1,0,56.1,0,33.7,0,28.5,0,31.9,0,49,0
8/3/2004 14:00,32.2,0,55.8,0,33.9,0,28.5,0,32.1,0,48.8,0
8/3/2004 14:15,32.4,0,55.5,0,34,0,28.5,0,31.9,0,49.5,0
8/3/2004 14:30,32.6,0,55.2,0,34.2,0,28.6,0,31.7,0,50.3,0
8/3/2004 14:45,32.7,0,55,0,34.4,0,28.6,0,31.6,0,51,0
8/3/2004 15:00,32.9,0,54.9,0,34.6,0,28.6,0,31.4,0,51.8,0
8/3/2004 15:15,33,0,54.6,0,34.8,0,28.6,0,31.3,0,51.8,0
8/3/2004 15:30,33.2,0,54.4,0,35,0,28.7,0,31.3,0,51.8,0
8/3/2004 15:45,33.4,0,54,0,35.1,0,28.7,0,31.2,0,51.8,0
8/3/2004 16:00,33.6,0,53.7,0,35.4,0,28.7,0,31.2,0,51.8,0
8/3/2004 16:15,33.8,0,53.3,0,35.6,0,28.8,0,31.2,0,51.8,0
8/3/2004 16:30,34.1,0,52.8,0,35.9,0,28.8,0,31.2,0,51.8,0
8/3/2004 16:45,34.3,0,52.3,0,36.1,0,28.8,0,31.3,0,51.8,0
8/3/2004 17:00,34.5,0,51.9,0,36.3,0,28.8,0,31.3,0,51.8,0
8/3/2004 17:15,34.6,0,51.6,0,36.4,0,28.9,0,31,0,53.8,0
8/3/2004 17:30,34.8,0,51.1,0,36.5,0,28.9,0,30.7,0,55.8,0
8/3/2004 17:45,34.9,0,50.8,0,36.5,0,28.9,0,30.4,0,57.8,0
8/3/2004 18:00,34.9,0,50.7,0,36.5,0,28.9,0,30.1,0,59.8,0
8/3/2004 18:15,34.8,0,50.8,0,36.3,0,29,0,29.9,0,60.8,0
8/3/2004 18:30,34.7,0,50.9,0,36.1,0,29,0,29.6,0,61.8,0
8/3/2004 18:45,34.7,0,51.1,0,36,0,29,0,29.4,0,62.8,0
8/3/2004 19:00,34.6,0,51.2,0,35.8,0,29,0,29.2,0,63.8,0
8/3/2004 19:15,34.5,0,51.3,0,35.7,0,29.1,0,29,0,64.1,0
8/3/2004 19:30,34.4,0,51.5,0,35.6,0,29.1,0,28.8,0,64.3,0
8/3/2004 19:45,33.9,0,47.2,0,35.5,0,29.1,0,28.6,0,64.6,0
8/3/2004 20:00,32.9,0,41.2,0,35.3,0,29.1,0,28.4,0,64.8,0
8/3/2004 20:15,32.2,0,39,0,35.2,0,29.2,0,28.2,0,66.3,0
8/3/2004 20:30,31.3,0,39.8,0,35.1,0,28.3,0,28,0,67.8,0
8/3/2004 20:45,30.5,0,38.1,0,34.9,0,28.3,0,27.9,0,69.3,0
8/3/2004 21:00,30,0,39.5,0,34.8,0,28.3,0,27.7,0,70.8,0
8/3/2004 21:15,29.6,0,41.8,0,34.6,0,28.4,0,27.6,0,71.3,0
8/3/2004 21:30,29.3,0,47,0,34.5,0,28.4,0,27.5,0,71.8,0
8/3/2004 21:45,28.9,0,43.5,0,34.4,0,28.5,0,27.5,0,72.3,0
8/3/2004 22:00,28.6,0,43,0,34.3,0,28.5,0,27.4,0,72.8,0
8/3/2004 22:15,28.4,0,42.2,0,34.2,0,28.5,0,27.3,0,73.3,0
8/3/2004 22:30,28.3,0,46.7,0,34.1,0,28.2,0,27.2,0,73.8,0
8/3/2004 22:45,28,0,44.2,0,34,0,28.2,0,27.2,0,74.3,0
8/3/2004 23:00,27.8,0,44.4,0,33.9,0,28.3,0,27.1,0,74.8,0
8/3/2004 23:15,27.7,0,45.1,0,33.8,0,28.3,0,27,0,75.3,0
8/3/2004 23:30,27.6,0,46.5,0,33.7,0,28.3,0,26.9,0,75.8,0
8/3/2004 23:45,27.3,0,45.1,0,33.7,0,28.4,0,26.9,0,76.3,0
8/4/2004 0:00,27,0,44.9,0,33.7,0,28.4,0,26.8,0,76.8,0
8/4/2004 0:15,26.8,0,43.6,0,32.6,0,28.4,0,26.8,0,76.1,0
8/4/2004 0:30,26.8,0,46.6,0,30.3,0,28.5,0,26.7,0,75.3,0
8/4/2004 0:45,26.7,0,47.2,0,29.3,0,28.5,0,26.7,0,74.6,0
8/4/2004 1:00,26.9,0,50.9,0,28.7,0,28.5,0,26.7,0,73.8,0
8/4/2004 1:15,26.7,0,48.4,0,28.3,0,28.6,0,26.7,0,73.8,0
8/4/2004 1:30,26.5,0,46.9,0,27.9,0,28.6,0,26.7,0,73.8,0
8/4/2004 1:45,26.5,0,47.6,0,28.3,0,28.6,0,26.7,0,73.8,0
8/4/2004 2:00,26.5,0,48.2,0,28.4,0,28.6,0,26.7,0,73.8,0
8/4/2004 2:15,26.6,0,49.8,0,28.4,0,28.7,0,26.7,0,74.3,0
8/4/2004 2:30,26.7,0,51.3,0,28.3,0,28.7,0,26.6,0,74.8,0
8/4/2004 2:45,27,0,54.5,0,28.5,0,28.5,0,26.6,0,75.3,0
8/4/2004 3:00,27.2,0,58.2,0,28.4,0,28.5,0,26.6,0,75.8,0
8/4/2004 3:15,27.2,0,57.5,0,28.3,0,28.5,0,26.6,0,75.8,0
8/4/2004 3:30,27.3,0,56,0,28.2,0,28.6,0,26.5,0,75.8,0
8/4/2004 3:45,27.4,0,57.4,0,28.3,0,28.6,0,26.5,0,75.8,0
8/4/2004 4:00,27.4,0,57.7,0,28.3,0,28.6,0,26.5,0,75.8,0
8/4/2004 4:15,27.4,0,55.4,0,28.3,0,28.6,0,26.5,0,76.3,0
8/4/2004 4:30,27.6,0,58.3,0,28.4,0,28.7,0,26.4,0,76.8,0
8/4/2004 4:45,27.5,0,57,0,29.2,0,28.7,0,26.4,0,77.3,0
8/4/2004 5:00,27.4,0,55.8,0,29.5,0,28.7,0,26.4,0,77.8,0
8/4/2004 5:15,27.6,0,57.6,0,29.7,0,28.7,0,26.5,0,77.3,0
8/4/2004 5:30,27.5,0,57.1,0,29.8,0,28.8,0,26.6,0,76.8,0
8/4/2004 5:45,27.5,0,55.6,0,30,0,28.8,0,26.8,0,76.3,0
8/4/2004 6:00,27.6,0,58.6,0,30.1,0,28.8,0,26.9,0,75.8,0
8/4/2004 6:15,27.5,0,56.2,0,30.1,0,28.8,0,27,0,75.3,0
8/4/2004 6:30,27.6,0,57.5,0,30.2,0,28.2,0,27.1,0,74.8,0
8/4/2004 6:45,27.5,0,54.3,0,30.2,0,28.2,0,27.3,0,74.3,0
8/4/2004 7:00,27.7,0,56.9,0,30.3,0,28.2,0,27.4,0,73.8,0
8/4/2004 7:15,27.6,0,53.3,0,30.4,0,28.2,0,27.7,0,71.6,0
8/4/2004 7:30,27.7,0,55.3,0,30.6,0,28.3,0,28.1,0,69.3,0
8/4/2004 7:45,27.7,0,54,0,30.7,0,28.3,0,28.4,0,67.1,0
8/4/2004 8:00,27.5,0,51.3,0,30.8,0,28.3,0,28.8,0,64.8,0
8/4/2004 8:15,27.6,0,53.3,0,30.8,0,28.3,0,29,0,63.6,0
8/4/2004 8:30,28.1,0,60.3,0,30.8,0,28.3,0,29.1,0,62.3,0
8/4/2004 8:45,28.5,0,61,0,30.8,0,28.4,0,29.3,0,61.1,0
8/4/2004 9:00,28.7,0,60.9,0,31,0,28.4,0,29.5,0,59.8,0
8/4/2004 9:15,29,0,60.9,0,31.1,0,28.4,0,29.8,0,58.3,0
8/4/2004 9:30,29.3,0,63.1,0,31.3,0,28.5,0,30.1,0,56.8,0
8/4/2004 9:45,29.5,0,62.2,0,31.5,0,28.5,0,30.4,0,55.3,0
8/4/2004 10:00,29.8,0,60.8,0,31.7,0,28.5,0,30.7,0,53.8,0
8/4/2004 10:15,29.9,0,59.6,0,31.8,0,28.5,0,30.9,0,53.5,0
8/4/2004 10:30,30.1,0,58.8,0,32,0,28.2,0,31.1,0,53.3,0
8/4/2004 10:45,30.3,0,57.5,0,32.3,0,28.2,0,31.4,0,53,0
8/4/2004 11:00,30.5,0,57.5,0,32.6,0,28.2,0,31.6,0,52.8,0
8/4/2004 11:15,30.8,0,59.3,0,32.6,0,28.2,0,31.4,0,52.5,0
8/4/2004 11:30,31,0,58.3,0,32.7,0,28.2,0,31.3,0,52.3,0
8/4/2004 11:45,31.1,0,57.3,0,32.8,0,28.3,0,31.1,0,52,0
8/4/2004 12:00,31.3,0,55.7,0,33,0,28.3,0,31,0,51.8,0
8/4/2004 12:15,31.4,0,55.9,0,33.2,0,28.3,0,31.5,0,50.3,0
8/4/2004 12:30,31.6,0,55,0,33.3,0,28.3,0,32.1,0,48.8,0
8/4/2004 12:45,31.8,0,54.6,0,33.4,0,28.3,0,32.6,0,47.3,0
8/4/2004 13:00,31.9,0,53.8,0,33.7,0,28.4,0,33.2,0,45.8,0
8/4/2004 13:15,32.1,0,51.7,0,33.9,0,28.4,0,33,0,45.8,0
8/4/2004 13:30,32.3,0,51.4,0,34,0,28.4,0,32.9,0,45.8,0
8/4/2004 13:45,32.5,0,51.4,0,34.2,0,28.5,0,32.7,0,45.8,0
8/4/2004 14:00,32.6,0,51,0,34.4,0,28.5,0,32.6,0,45.8,0
8/4/2004 14:15,32.8,0,50.2,0,34.5,0,28.5,0,32.3,0,47.3,0
8/4/2004 14:30,33,0,49.9,0,34.6,0,28.5,0,31.9,0,48.8,0
8/4/2004 14:45,33.1,0,49.9,0,34.8,0,28.6,0,31.6,0,50.3,0
8/4/2004 15:00,33.2,0,50,0,34.9,0,28.6,0,31.3,0,51.8,0
8/4/2004 15:15,33.4,0,49.7,0,35,0,28.6,0,31.3,0,51.8,0
8/4/2004 15:30,33.6,0,49.4,0,35.1,0,28.7,0,31.3,0,51.8,0
8/4/2004 15:45,33.7,0,48.8,0,35.2,0,28.7,0,31.4,0,51.8,0
8/4/2004 16:00,33.9,0,48.5,0,35.2,0,28.7,0,31.4,0,51.8,0
8/4/2004 16:15,34.1,0,47.2,0,35.3,0,28.8,0,31.2,0,52.3,0
8/4/2004 16:30,34.2,0,46.8,0,35.4,0,28.8,0,31.1,0,52.8,0
8/4/2004 16:45,34.3,0,46.5,0,35.5,0,28.8,0,30.9,0,53.3,0
8/4/2004 17:00,34.5,0,46,0,35.5,0,28.8,0,30.8,0,53.8,0
8/4/2004 17:15,34.6,0,45.7,0,35.4,0,28.9,0,30.6,0,54.5,0
8/4/2004 17:30,34.6,0,45.8,0,35.3,0,28.9,0,30.3,0,55.3,0
8/4/2004 17:45,34.6,0,46.2,0,34.9,0,28.9,0,30.1,0,56,0
8/4/2004 18:00,34.4,0,46.7,0,34.8,0,29,0,29.9,0,56.8,0
8/4/2004 18:15,34.1,0,46.9,0,34.8,0,29,0,29.8,0,57.8,0
8/4/2004 18:30,33.8,0,48.5,0,34.8,0,29,0,29.7,0,58.8,0
8/4/2004 18:45,33.7,0,49.8,0,34.7,0,29.1,0,29.6,0,59.8,0
8/4/2004 19:00,32.9,0,42,0,34.5,0,29.1,0,29.5,0,60.8,0
8/4/2004 19:15,32,0,38.4,0,34.3,0,29.1,0,29.2,0,61.8,0
8/4/2004 19:30,31.5,0,40.4,0,34.1,0,29.2,0,28.9,0,62.8,0
8/4/2004 19:45,31,0,40.3,0,33.9,0,29.2,0,28.7,0,63.8,0
8/4/2004 20:00,30.5,0,40.5,0,33.7,0,28.7,0,28.4,0,64.8,0
8/4/2004 20:15,30,0,39.9,0,33.5,0,28.7,0,28.3,0,65.8,0
8/4/2004 20:30,29.6,0,39.1,0,33.5,0,28.7,0,28.2,0,66.8,0
8/4/2004 20:45,29.3,0,38.7,0,33.4,0,28.8,0,28.2,0,67.8,0
8/4/2004 21:00,29,0,40.3,0,33.3,0,28.8,0,28.1,0,68.8,0
8/4/2004 21:15,28.8,0,39.8,0,33.2,0,28.8,0,28,0,69.3,0
8/4/2004 21:30,28.6,0,42.3,0,31.8,0,28.8,0,27.9,0,69.8,0
8/4/2004 21:45,28.5,0,43.7,0,27.6,0,28.4,0,27.8,0,70.3,0
8/4/2004 22:00,28.3,0,44.7,0,27.3,0,28.5,0,27.7,0,70.8,0
8/4/2004 22:15,28.2,0,45.7,0,28.2,0,28.5,0,27.6,0,71.3,0
8/4/2004 22:30,28.1,0,44.3,0,28.3,0,28.5,0,27.5,0,71.8,0
8/4/2004 22:45,28.1,0,44.3,0,28.6,0,28.6,0,27.5,0,72.3,0
8/4/2004 23:00,28.5,0,50.1,0,28.8,0,28.6,0,27.4,0,72.8,0
8/4/2004 23:15,28.6,0,51.8,0,29.1,0,28.3,0,27.4,0,73.1,0
8/4/2004 23:30,28.4,0,45.9,0,29.2,0,28.4,0,27.4,0,73.3,0
8/4/2004 23:45,28.8,0,49.6,0,29.3,0,28.4,0,27.4,0,73.6,0
8/5/2004 0:00,29.1,0,52,0,29.3,0,28.4,0,27.4,0,73.8,0
8/5/2004 0:15,29.4,0,53.7,0,29.4,0,28.5,0,27.3,0,74.1,0
8/5/2004 0:30,29.6,0,55,0,29.3,0,28.5,0,27.3,0,74.3,0
8/5/2004 0:45,29.5,0,49.6,0,29.3,0,28.5,0,27.2,0,74.6,0
8/5/2004 1:00,29,0,43.5,0,29.3,0,28.6,0,27.2,0,74.8,0
8/5/2004 1:15,28.9,0,45.2,0,29.3,0,28.6,0,27.2,0,74.8,0
8/5/2004 1:30,28.6,0,46.2,0,29,0,28.6,0,27.1,0,74.8,0
8/5/2004 1:45,28.5,0,47.8,0,28.8,0,28.7,0,27.1,0,74.8,0
8/5/2004 2:00,28.6,0,51,0,28.6,0,28.7,0,27.1,0,74.8,0
8/5/2004 2:15,28.4,0,48.3,0,28.5,0,28.7,0,27.1,0,74.8,0
8/5/2004 2:30,28.4,0,52.3,0,28.4,0,28.8,0,27.1,0,74.8,0
8/5/2004 2:45,28.3,0,49.8,0,28.5,0,28.8,0,27.2,0,74.8,0
8/5/2004 3:00,28.1,0,50.2,0,28.4,0,28.8,0,27.2,0,74.8,0
8/5/2004 3:15,28.2,0,53.6,0,28.4,0,28.9,0,27.1,0,75.3,0
8/5/2004 3:30,28.1,0,52.7,0,28.4,0,28.9,0,27.1,0,75.8,0
8/5/2004 3:45,28.2,0,52.9,0,28.4,0,28.9,0,27,0,76.3,0
8/5/2004 4:00,28.1,0,54,0,28.4,0,28.8,0,27,0,76.8,0
8/5/2004 4:15,28.1,0,52,0,28.3,0,28.9,0,27,0,76.8,0
8/5/2004 4:30,28.1,0,55.7,0,28.3,0,29,0,26.9,0,76.8,0
8/5/2004 4:45,28,0,51.6,0,28.7,0,29,0,26.9,0,76.8,0
8/5/2004 5:00,28.1,0,55.6,0,29.3,0,29.1,0,26.9,0,76.8,0
8/5/2004 5:15,28,0,54.5,0,29.7,0,29.1,0,26.9,0,76.3,0
8/5/2004 5:30,28.3,0,56.2,0,29.9,0,28.3,0,27,0,75.8,0
8/5/2004 5:45,28.6,0,57.3,0,30.1,0,28.4,0,27,0,75.3,0
8/5/2004 6:00,28.8,0,58.1,0,30.3,0,28.4,0,27.1,0,74.8,0
8/5/2004 6:15,29.1,0,58.5,0,30.5,0,28.4,0,27.3,0,74.1,0
8/5/2004 6:30,29.3,0,58.8,0,30.6,0,28.5,0,27.5,0,73.3,0
8/5/2004 6:45,29.6,0,59.2,0,30.8,0,28.5,0,27.7,0,72.6,0
8/5/2004 7:00,29.8,0,59.6,0,30.9,0,28.5,0,27.9,0,71.8,0
8/5/2004 7:15,30,0,59.9,0,31.1,0,28.5,0,28,0,71.1,0
8/5/2004 7:30,29.6,0,50.6,0,31.2,0,28.3,0,28,0,70.3,0
8/5/2004 7:45,29.2,0,46.7,0,31.3,0,28.5,0,28.1,0,69.6,0
8/5/2004 8:00,29.1,0,51,0,31.6,0,28.5,0,28.2,0,68.8,0
8/5/2004 8:15,28.7,0,53.8,0,31.8,0,28.4,0,28.4,0,67.6,0
8/5/2004 8:30,29,0,57,0,31.8,0,28.4,0,28.6,0,66.3,0
8/5/2004 8:45,29.3,0,59.1,0,31.9,0,28.4,0,28.9,0,65.1,0
8/5/2004 9:00,29.5,0,59.4,0,32,0,28.4,0,29.1,0,63.8,0
8/5/2004 9:15,29.7,0,59.4,0,32.2,0,28.5,0,29.4,0,62.5,0